Regional Weather Roundup
Issued by NWS

Home | Current Version | Previous Version | Text Only | Print | Product List | Glossary On
Versions: 1 2 3 4 5 6 7 8 9 10 11 12 13 14 15 16 17
000
ASUS42 KTBW 231316
RWRFL
FLORIDA REGIONAL WEATHER ROUNDUP
NATIONAL WEATHER SERVICE TAMPA BAY RUSKIN FL
800 AM EST TUE JAN 23 2018

NOTE: "FAIR" INDICATES FEW OR NO CLOUDS BELOW 12,000 FEET WITH NO
SIGNIFICANT WEATHER AND/OR OBSTRUCTIONS TO VISIBILITY.

FLZ001>010-012>015-112-114-115-231400-
PANHANDLE FLORIDA

CITY           SKY/WX    TMP DP  RH WIND       PRES   REMARKS
PENSACOLA      FAIR      46  34  62 NW5       30.10R WCI  44
PENSACOLA NAS  MOCLDY    42  35  76 CALM      30.10R
MILTON NAS     MOCLDY    38  34  85 NW3       30.09
CRESTVIEW      FAIR      39  36  89 N3        30.10R
DUKE FIELD     FAIR      43  35  72 NW5       30.08R WCI  40
VALPARAISO     MOCLDY    47  33  56 NW7       30.08R WCI  44
MARY ESTHER    CLEAR     44  37  79 N5        30.08R WCI  41
PANAMA CITY    FAIR      51  38  60 NW8       30.06R
TYNDALL AFB    FAIR      55  41  60 N8        30.07R
APALACHICOLA   MOCLDY    61  61 100 NW6       30.02R

STATION/POSITION SKY/WX   TEMP    WIND        PRES    WAVE   SWELL
                          AIR SEA DIR/SP/G            HT/PER HT/PER
                          (F)     (DEG/KT/KT) (MB)    (FT/S) (FT/S)
29.2N   88.2W              59 67  340/ 19/ 25 1020.2R   6/ 6
28.8N   86.0W              65 69  330/ 19/ 21 1017.4R   4/ 4   2/ 8
PANAMA CITY BEAC           51 56  340/  5/  9 1018.6R
TOWER C                    60     310/ 13/ 14 1017.7R

$$
FLZ011-016>038-118-127-128-134-139-239-231400-
NORTH FLORIDA

CITY           SKY/WX    TMP DP  RH WIND       PRES   REMARKS
MARIANNA       FAIR      53  36  52 NW9       30.06R
TALLAHASSEE    FOG       60  60 100 CALM      30.01R VSB 1/4
PERRY          FOG       64  63  96 SW5       30.02R VSB 1
LIVE OAK       CLOUDY    64  64 100 VRB5      30.02R
CROSS CITY     CLOUDY    64 N/A N/A SW7       30.07R
LAKE CITY      CLOUDY    63  63 100 SW9       30.01R
GAINESVILLE    CLOUDY    65  63  93 SW9       30.05R
WILLISTON        N/A     66  66 100 S6        30.04R FOG
PALATKA        MOCLDY    64  64 100 SW6       30.03S
JACKSONVILLE   LGT RAIN  67  65  93 SW9       30.00R FOG
JAX NAS        CLOUDY    66  65  96 S10       30.01S
JAX CECIL      CLOUDY    66  66 100 S7        30.00S FOG
FERNANDINA BEA CLOUDY    66  64  94 S10       29.98F
ST AUGUSTINE   CLOUDY    66  64  94 S7        30.02S
PALM COAST     CLOUDY    66  66 100 SW5       30.03S

STATION/POSITION SKY/WX   TEMP    WIND        PRES    WAVE   SWELL
                          AIR SEA DIR/SP/G            HT/PER HT/PER
                          (F)     (DEG/KT/KT) (MB)    (FT/S) (FT/S)
SHELL POINT      NOT AVBL
KEATON BEACH               59     180/  8/  9 1016.2R
CEDAR KEY                  57     240/  4/  7 1017.2R
FERNANDINA                 66 54  170/  9/ 13 1016.3F
30.7N   81.3W                 50                N/A     3/ 6
MAYPORT                    66 54  200/  7/ 12 1015.9R
31.4N   80.9W              54 51  180/ 12/ 14 1014.7    4/ 6   3/ 6
ST AUGUSTINE               66 53  210/  6/  8 1016.6S

$$
FLZ040-043>046-052-053-057-058-063-144-231400-
INTERIOR CENTRAL FLORIDA

CITY           SKY/WX    TMP DP  RH WIND       PRES   REMARKS
OCALA          MOCLDY    64  63  96 S5        30.05R
LEESBURG       FAIR      67  66  97 SW6       30.04S
SANFORD        FAIR      68  66  93 S8        30.03S
ORLANDO EXEC   FAIR      68  67  96 S10       30.04R
ORLANDO INTL   CLOUDY    67  66  97 S9        30.05R
KISSIMMEE      FAIR      67  65  93 S6        30.06S
WINTER HAVEN   MOCLDY    68  66  93 S9        30.05F
LAKELAND       DRIZZLE   66  66 100 SW7       30.05S
BARTOW         DRIZZLE   66  66 100 S10       30.05S
SEBRING        CLOUDY    67  64  92 CALM      30.07R FOG
OKEECHOBEE     CLOUDY    68  68 100 S5        30.06R

$$
FLZ041-047-054-059-064-141-147-231400-
EAST CENTRAL FLORIDA

CITY           SKY/WX    TMP DP  RH WIND       PRES   REMARKS
ORMOND BEACH   MOCLDY    66  66 100 S6        30.03S
DAYTONA BEACH  CLOUDY    67  67 100 S6G16     30.02F
DELAND         LGT RAIN  66  66 100 S7        30.02S
NEW SMYRNA BEA MOCLDY    68  66  94 CALM      30.05R
JFK SPACE CTR  FAIR      67  67 100 S8        30.03R
TITUSVILLE     PTCLDY    70  66  88 SW6       30.05S
CAPE CANAVERAL FAIR      66  65  95 S7        30.03F
PATRICK AFB    FAIR      69  69 100 S10       30.05
MELBOURNE      FAIR      70  68  93 S6        30.06R
VERO BEACH     FAIR      70  68  93 S7        30.06R
FT PIERCE      MOCLDY    70  69  97 S7        30.05S
STUART         MOCLDY    63  63 100 S5        30.07S

STATION/POSITION SKY/WX   TEMP    WIND        PRES    WAVE   SWELL
                          AIR SEA DIR/SP/G            HT/PER HT/PER
                          (F)     (DEG/KT/KT) (MB)    (FT/S) (FT/S)
28.5N   80.2W              70 72  210/ 10/ 12 1017.4R   3/10   2/10
TRIDENT PIER               67 62  170/  5/  6 1019.0S
28.4N   80.5W                 63                N/A     3/ 5
27.5N   80.2W                 72                N/A     3/ 4

$$
FLZ050-056-061-142-242-148-248-149-249-151-251-155-255-
160-260-231400-
WEST CENTRAL FLORIDA

CITY           SKY/WX    TMP DP  RH WIND       PRES   REMARKS
CRYSTAL RIVER  FAIR      64  63  94 CALM      30.05R
INVERNESS      FAIR      64  64 100 SW3       30.05R
BROOKSVILLE    FAIR      66  64  93 S6        30.05R
CLEARWATER AIR FAIR      64  64 100 CALM      30.04R
ST PETE CLEARW FAIR      68  66  93 S5        30.04R
TAMPA INTL     MOCLDY    67  64  90 SW5       30.05R
TAMPA EXEC     FAIR      64  64 100 CALM      30.06R FOG
PLANT CITY     DRIZZLE   68  66  94 S5        30.07R
MACDILL AFB    MOCLDY    64  64 100 S8        30.04R
PETER O KNIGHT FAIR     N/A N/A N/A CALM      30.05R
ST PETERSBURG  FAIR      65  64  97 SW6       30.03R
SARASOTA       FAIR      67  66  97 SE8       30.03S
VENICE         RAIN      68  68 100 CALM      30.06S

STATION/POSITION SKY/WX   TEMP    WIND        PRES    WAVE   SWELL
                          AIR SEA DIR/SP/G            HT/PER HT/PER
                          (F)     (DEG/KT/KT) (MB)    (FT/S) (FT/S)
27.3N   84.2W                 70                N/A     2/ 8
CLEARWATER BEACH           67 56  160/  5/  8 1017.2R
MIDDLE TAMPA BAY           63     190/  6/  6 1017.5R
VENICE                     67 60  120/  5/  6 1017.5F

$$
FLZ066-069-070-075>078-162-262-165-265-231400-
SOUTHWEST FLORIDA AND KEYS

CITY           SKY/WX    TMP DP  RH WIND       PRES   REMARKS
PUNTA GORDA    MOCLDY    69  67  93 CALM      30.08R
FT MYERS       MOCLDY    71  69  93 SE5       30.05S
SOUTHWEST INTL CLOUDY    69  69 100 SE5       30.06S
NAPLES         CLOUDY    70  69  97 NE3       30.06R
MARCO ISLAND   CLOUDY    69  68  96 NE3       30.07R
IMMOKALEE      CLOUDY    70  68  94 CALM      30.08R
MARATHON       FAIR     N/A N/A N/A SE3       30.06R
KEY WEST INTL  FAIR      72  71  97 SE6       30.05R

STATION/POSITION SKY/WX   TEMP    WIND        PRES    WAVE   SWELL
                          AIR SEA DIR/SP/G            HT/PER HT/PER
                          (F)     (DEG/KT/KT) (MB)    (FT/S) (FT/S)
NAPLES                        63   CALM  /  2 1017.9R
DRY TORTUGAS               70     110/  4/  4 1017.5R
SAND KEY                   74                 1017.9R
MOLASSES REEF              75 73  150/ 11/ 12 1018.3R

$$
FLZ067-068-071>074-168-172>174-231400-
SOUTHEAST FLORIDA

CITY           SKY/WX    TMP DP  RH WIND       PRES   REMARKS
W PALM BEACH   MOCLDY    74  71  91 SE10      30.07R
BOCA RATON     CLEAR     75  72  88 S7G16     30.07R
FT LAUDER-EXEC FAIR      75  73  93 SE8       30.06S
FT LAUDERDALE  CLOUDY    74  73  97 SE9       30.06R
POMPANO BEACH  FAIR      76  74  93 SE10      30.07R
PEMBROKE PINES FAIR      75  71  87 SE6       30.08R
OPA LOCKA      FAIR      74  72  93 SE9       30.07R
MIAMI          CLOUDY    75  72  90 SE7       30.07R
WEST KENDALL   FAIR      73  70  90 SE5       30.07R
HOMESTEAD      CLOUDY    73  73 100 CALM      30.07R

STATION/POSITION SKY/WX   TEMP    WIND        PRES    WAVE   SWELL
                          AIR SEA DIR/SP/G            HT/PER HT/PER
                          (F)     (DEG/KT/KT) (MB)    (FT/S) (FT/S)
VIRGINIA KEY               74 70  110/  6/  7 1018.0R
LAKE WORTH                 74 73  170/ 14/ 15 1019.2R
FOWEY ROCKS                74 73  130/ 14/ 15 1018.8R
SETTLEMENT POINT           75     160/  9/ 12 1018.7R

$$





USA.gov is the U.S. government's official web portal to all federal, state and local government web resources and services.